Weather History for KLHX - April, 2013

Change the Weather History Date:

Friday, April 19, 2013

  Actual Average Record
Temperature  
Mean Temperature 42 °F 54 °F  
Max Temperature 58 °F 69 °F 88 °F (1961)
Min Temperature 25 °F 38 °F 25 °F (2013)
Degree Days  
Heating Degree Days 23 12  
Month to date heating degree days 359 269  
Since 1 July heating degree days 4807 5017  
Cooling Degree Days 0 0  
Month to date cooling degree days 0 0  
Year to date cooling degree days 0 1  
Moisture  
Dew Point 22 °F    
Average Humidity 52    
Maximum Humidity 81    
Minimum Humidity 22    
Precipitation  
Precipitation 0.00 in 0.04 in 1.05 in (2003)
Month to date precipitation 0.10 0.72  
Year to date precipitation 0.45 2.18  
Sea Level Pressure  
Sea Level Pressure 30.07 in    
Wind  
Wind Speed 12 mph (SSW)    
Max Wind Speed 28 mph    
Max Gust Speed 31 mph    
Visibility 10 miles    
Events      
T = Trace of Precipitation, MM = Missing Value Source: NWS Daily Summary

Daily Weather History Graph

Daily Weather History Graph

Search for Another Location

Airport or City:

Trip Planner

Search our weather history database for the weather conditions in past years. The results will help you decide how hot, cold, wet, or windy it might be!

Date:

Astronomy

Apr. 19, 2013 Rise Set
Actual Time 6:12 AM MDT 7:34 PM MDT
Civil Twilight 5:45 AM MDT 8:01 PM MDT
Nautical Twilight 5:12 AM MDT 8:34 PM MDT
Astronomical Twilight 4:37 AM MDT 9:09 PM MDT
Moon 1:26 PM MDT (4/19) 2:23 AM MDT (4/19)
Length of Visible Light 14h 16m
Length of Day
13h 21m
Waxing Gibbous, 62% of the Moon is Illuminated
Apr 19
Waxing Gibbous
Apr 25
Full
May 2
Last Quarter
May 9
New
May 17
First Quarter

Hourly Weather History & Observations

Time (MDT) Temp. Windchill Dew Point Humidity Pressure Visibility Wind Dir Wind Speed Gust Speed Precip Events Conditions
12:53 AM 27.0 °F 14.7 °F 18.0 °F 69% 30.25 in 10.0 mi SW 16.1 mph - N/A   Clear
1:53 AM 27.0 °F 14.7 °F 17.1 °F 66% 30.21 in 10.0 mi WSW 16.1 mph - N/A   Clear
2:53 AM 25.0 °F 11.7 °F 18.0 °F 75% 30.19 in 10.0 mi WSW 17.3 mph - N/A   Clear
3:53 AM 25.0 °F 13.6 °F 19.0 °F 78% 30.17 in 10.0 mi WSW 12.7 mph - N/A   Clear
4:53 AM 25.0 °F 13.6 °F 18.0 °F 75% 30.18 in 10.0 mi WSW 12.7 mph - N/A   Clear
5:53 AM 27.0 °F 14.3 °F 17.1 °F 66% 30.18 in 10.0 mi WSW 17.3 mph - N/A   Clear
6:53 AM 28.0 °F 15.3 °F 17.1 °F 63% 30.18 in 10.0 mi WSW 18.4 mph - N/A   Clear
7:53 AM 30.9 °F 19.8 °F 19.0 °F 61% 30.19 in 10.0 mi WSW 16.1 mph - N/A   Clear
8:53 AM 35.1 °F 28.6 °F 23.0 °F 61% 30.17 in 10.0 mi West 8.1 mph - N/A   Clear
9:53 AM 39.9 °F 32.9 °F 23.0 °F 51% 30.17 in 10.0 mi WSW 11.5 mph - N/A   Clear
10:53 AM 44.1 °F 37.4 °F 25.0 °F 47% 30.14 in 10.0 mi WSW 13.8 mph - N/A   Clear
11:53 AM 48.9 °F - 28.0 °F 44% 30.12 in 10.0 mi WSW 10.4 mph - N/A   Clear
12:53 PM 52.0 °F - 23.0 °F 32% 30.08 in 10.0 mi WSW 9.2 mph - N/A   Clear
1:53 PM 54.0 °F - 18.0 °F 24% 30.05 in 10.0 mi SSW 9.2 mph - N/A   Clear
2:53 PM 55.9 °F - 17.1 °F 22% 30.01 in 10.0 mi South 8.1 mph - N/A   Clear
3:53 PM 55.0 °F - 18.0 °F 23% 29.99 in 10.0 mi South 6.9 mph - N/A   Clear
4:53 PM 57.9 °F - 21.0 °F 24% 29.95 in 10.0 mi ESE 9.2 mph - N/A   Clear
5:53 PM 57.0 °F - 21.0 °F 25% 29.93 in 10.0 mi ESE 6.9 mph - N/A   Clear
6:53 PM 55.0 °F - 27.0 °F 34% 29.91 in 10.0 mi East 9.2 mph - N/A   Clear
7:53 PM 50.0 °F - 28.0 °F 43% 29.91 in 10.0 mi East 9.2 mph - N/A   Clear
8:53 PM 48.0 °F - 28.9 °F 48% 29.92 in 10.0 mi East 8.1 mph - N/A   Clear
9:53 PM 48.0 °F - 25.0 °F 41% 29.91 in 10.0 mi East 12.7 mph - N/A   Clear
10:53 PM 48.0 °F - 24.1 °F 39% 29.89 in 10.0 mi East 16.1 mph - N/A   Overcast
11:53 PM 46.0 °F 39.9 °F 24.1 °F 42% 29.88 in 10.0 mi SE 13.8 mph - N/A   Overcast